Location: T�bingen+AIT
(48.5342°N, 9.0700°E)
Time: 01:49:58
(UTC+02:00)

Resurs 01 Rocket - Pass Details

Date: 14 September 2017
Orbit: 634 x 645 km, 98.1° (Epoch: 23 September)

Event Time Altitude Azimuth Distance (km) Brightness Sun altitude
Exits shadow 20:38:46 - 160° (SSE) 2,912 4.6 -10.6°
Reaches altitude 10° 20:40:55 10° 158° (SSE) 2,031 3.8 -11.0°
Maximum altitude 20:45:20 75° 73° (ENE) 667 1.6 -11.7°
Drops below altitude 10° 20:49:46 10° 349° (N) 2,040 4.6 -12.4°
Sets 20:51:58 0° 348° (NNW) 2,952 5.5 -12.7°
